Location: Barruelo
(41.2448°N, 3.8231°W)
Time: 19:53:14
(UTC+00:00)

Cosmos 1980 Rocket - Pass Details

Date: 11 December 2025
Orbit: 830 x 847 km, 71.0° (Epoch: 12 January)

Event Time Altitude Azimuth Distance (km) Brightness Sun altitude
Rises 18:06:58 0° 195° (SSW) 3,386 5.8 -14.6°
Reaches altitude 10° 18:09:25 10° 193° (SSW) 2,453 5.0 -15.1°
Maximum altitude 18:15:01 71° 111° (ESE) 887 2.1 -16.1°
Enters shadow 18:19:33 16° 29° (NNE) 2,060 3.8 -16.9°
